Weather in Sunderland

United Kingdom     54°54′40″N   1°22′59″W
temp.,
°C
wind,
m/s
gust,
m/s
humid.,
%
clouds,
%
prec.,
mm/h
press.,
hPa
HPBL,
m
23 october, sat
sat2301:00+7sw2682100 0.0 1022193
04:00+7ssw2379100 0.0 102095
07:00+7ssw378620 0.0 1020189
10:00+9s4979100 0.0 1020499
13:00+12ssw51163100 0.0 10191036
16:00+12ssw51267100 0.0 10171102
19:00+11ssw61272100 0.0 1016989
22:00+10ssw61370100 0.0 1016839
24 october, sun
sun2401:00+10ssw6127099 0.0 1015765
04:00+10ssw6146899 0.0 1012865
07:00+11s71573100 0.0 1011836
10:00+12s71574100 0.0 1011830
13:00+13ssw71470100 0.0 1010814
16:00+14ssw6127126 0.0 10091017
19:00+13ssw512702 0.0 1009897
22:00+12ssw512715 0.0 1009940
25 october, mon
mon2501:00+12sw5127637 0.1 10081062
04:00+10sw411775 0.0 1008696
07:00+10sw4107467 0.0 1009791
10:00+11sw41068100 0.0 10091061
13:00+12wsw510655 0.1 10101180
16:00+12wsw5106239 0.0 10101106
19:00+10sw41071100 0.0 1012746
22:00+9sw39755 0.0 1013489
26 october, tue
tue2601:00+9sw398129 0.0 1013386
04:00+9ssw378499 0.0 1013212
07:00+10sw51277100 0.0 1013650
10:00+11ssw51378100 0.4 1012925
13:00+13sw5138098 0.4 1012708
16:00+15wsw41176100 0.0 10131041
19:00+13ssw378455 0.0 1014183
22:00+13sw4128827 0.0 1014458
27 october, wed
wed2701:00+14sw6148275 0.0 1014734
04:00+14sw51481100 0.0 1013766
07:00+14ssw5137699 0.0 1012735
10:00+15ssw51465100 0.0 1013920
13:00+17ssw51262100 0.0 1012989
16:00+17ssw5136691 0.0 10111036
19:00+15ssw81673100 0.0 1010972
22:00+15ssw71773100 0.0 10091119